User: anonymous   Login
Location: Spor
(46.2167°N, 11.0500°E)
Time: 14:49:33
(UTC+00:00)
Language:

STARLINK-48 - Orbit

View from above orbital plane
View from above orbital plane
View from above satellite
View from above satellite

Ground track
Ground track

The orbit data is extracted from the following two-line orbital elements,

1 44289C 19029BG  20225.49283715  .00003568  00000-0  16212-3 0  2257
2 44289  53.0022 286.2316 0001078  69.7060  25.8077 15.20232569    18
Epoch (UTC): 12 August 2020 11:49:41
Eccentricity: 0.0001078
inclination: 53.0022°
perigee height: 504 km
apogee height: 506 km
right ascension of ascending node: 286.2316°
argument of perigee: 69.7060°
revolutions per day: 15.20232569
mean anomaly at epoch: 25.8077°
orbit number at epoch: 1

The dashed part of the orbit path shows where the satellite is in the earth's shadow,  

DLR